Los Alamitos, CA

6:51 AM PDT on April 19, 2018 (GMT -0700)
Los Alamitos Army Air Field

Weather History for KSLI - November, 2013

Change the Weather History Date:

Saturday, November 2, 2013

  Actual Average Record
Temperature  
Mean Temperature 64 °F -  
Max Temperature 80 °F 72 °F 96 °F (1997)
Min Temperature 48 °F 57 °F 46 °F (2011)
Degree Days  
Heating Degree Days 2    
Growing Degree Days 14 (Base 50)    
Moisture  
Dew Point 50 °F    
Average Humidity 73    
Maximum Humidity 100    
Minimum Humidity 17    
Precipitation  
Precipitation 0.00 in - - ()
Sea Level Pressure  
Sea Level Pressure 29.93 in    
Wind  
Wind Speed 3 mph (South)    
Max Wind Speed 12 mph    
Max Gust Speed -    
Visibility 10 miles    
Events      
Averages and records for this station are not official NWS values.
T = Trace of Precipitation, MM = Missing Value Source: NWS Daily Summary

Daily Weather History Graph

Daily Weather History Graph

Search for Another Location

Airport or City:

Trip Planner

Search our weather history database for the weather conditions in past years. The results will help you decide how hot, cold, wet, or windy it might be!

Date:

Astronomy

Nov. 02, 2013 Rise Set
Actual Time 7:12 AM PDT 5:58 PM PDT
Civil Twilight 6:46 AM PDT 6:24 PM PDT
Nautical Twilight 6:17 AM PDT 6:53 PM PDT
Astronomical Twilight 5:47 AM PDT 7:23 PM PDT
Moon 6:16 AM PDT (11/2) 5:32 PM PDT (11/2)
Length of Visible Light 11h 37m
Length of Day
10h 45m
Waning Crescent, 1% of the Moon is Illuminated
Nov 2
Waning Crescent
Nov 3
New
Nov 9
First Quarter
Nov 17
Full
Nov 25
Last Quarter

Hourly Weather History & Observations

Time (PDT) Temp. Dew Point Humidity Pressure Visibility Wind Dir Wind Speed Gust Speed Precip Events Conditions
12:58 AM 55.8 °F 49.8 °F 80% 29.99 in 10.0 mi Calm Calm - N/A   Clear
1:58 AM 54.0 °F 53.6 °F 99% 29.99 in 10.0 mi Calm Calm - N/A   Clear
2:58 AM 51.8 °F 51.8 °F 100% 29.98 in 10.0 mi Calm Calm - N/A   Clear
3:58 AM 53.4 °F 52.0 °F 95% 29.97 in 10.0 mi North 2.3 mph - N/A   Clear
4:58 AM 52.0 °F 44.8 °F 76% 29.95 in 10.0 mi Calm Calm - N/A   Clear
5:58 AM 48.0 °F 43.3 °F 84% 29.94 in 10.0 mi West 3.5 mph - N/A   Clear
6:58 AM 51.1 °F 47.1 °F 86% 29.94 in 10.0 mi NNW 4.6 mph - N/A   Clear
7:58 AM 52.9 °F 43.5 °F 71% 29.94 in 10.0 mi NE 3.5 mph - N/A   Clear
8:58 AM 61.9 °F 34.9 °F 36% 29.95 in 10.0 mi Variable 1.2 mph - N/A   Partly Cloudy
9:58 AM 66.9 °F 31.8 °F 27% 29.96 in 10.0 mi Calm Calm - N/A   Partly Cloudy
10:58 AM 73.4 °F 30.7 °F 21% 29.96 in 10.0 mi SW 3.5 mph - N/A   Partly Cloudy
11:58 AM 79.0 °F 30.2 °F 17% 29.94 in 10.0 mi South 6.9 mph - N/A   Scattered Clouds
12:58 PM 78.1 °F 34.9 °F 21% 29.92 in 10.0 mi South 10.4 mph - N/A   Scattered Clouds
1:58 PM 76.3 °F 42.3 °F 30% 29.90 in 10.0 mi SSW 10.4 mph - N/A   Scattered Clouds
2:58 PM 73.9 °F 45.1 °F 36% 29.90 in 10.0 mi South 11.5 mph - N/A   Scattered Clouds
3:58 PM 71.8 °F 50.4 °F 47% 29.90 in 10.0 mi South 8.1 mph - N/A   Clear
4:58 PM 70.3 °F 49.1 °F 47% 29.90 in 10.0 mi South 8.1 mph - N/A   Clear
5:58 PM 65.3 °F 63.3 °F 93% 29.89 in 10.0 mi South 3.5 mph - N/A   Clear
6:58 PM 62.6 °F 62.6 °F 100% 29.91 in 10.0 mi South 5.8 mph - N/A   Clear
7:58 PM 62.6 °F 62.6 °F 100% 29.92 in 10.0 mi South 6.9 mph - N/A   Clear
8:07 PM 62.6 °F 62.6 °F 100% 29.92 in 10.0 mi SW 4.6 mph - N/A   Partly Cloudy
8:22 PM 62.6 °F 62.6 °F 100% 29.91 in 10.0 mi SE 4.6 mph - N/A   Mostly Cloudy
8:27 PM 62.6 °F 62.6 °F 100% 29.91 in 10.0 mi SE 5.8 mph - N/A   Scattered Clouds
8:58 PM 61.9 °F 61.9 °F 100% 29.92 in 10.0 mi SE 5.8 mph - N/A   Clear
9:58 PM 61.0 °F 61.0 °F 100% 29.92 in 10.0 mi SSE 4.6 mph - N/A   Clear
10:58 PM 60.1 °F 60.1 °F 100% 29.92 in 10.0 mi ESE 4.6 mph - N/A   Partly Cloudy
11:58 PM 58.1 °F 58.1 °F 100% 29.92 in 8.0 mi ENE 3.5 mph - N/A   Scattered Clouds